Weather History for Grand Canyon, AZ

Change the Weather History Date:

Sunday, November 18, 2012

  Actual Average Record
Temperature  
Mean Temperature 40 °F -  
Max Temperature 54 °F 49 °F 66 °F (2007)
Min Temperature 21 °F 18 °F 10 °F (2000)
Degree Days  
Heating Degree Days 26    
Moisture  
Dew Point 32 °F    
Average Humidity 69    
Maximum Humidity 87    
Minimum Humidity 40    
Precipitation  
Precipitation 0.00 in - - ()
Sea Level Pressure  
Sea Level Pressure 30.13 in    
Wind  
Wind Speed 5 mph (SSW)    
Max Wind Speed 16 mph    
Max Gust Speed 22 mph    
Visibility 10 miles    
Events      
Averages and records for this station are not official NWS values.
T = Trace of Precipitation, MM = Missing Value Source: NWS Daily Summary

Daily Weather History Graph

Daily Weather History Graph

Search for Another Location

Airport:

Trip Planner

Search our weather history database for the weather conditions in past years. The results will help you decide how hot, cold, wet, or windy it might be!

Date:

Astronomy

Nov. 18, 2012 Rise Set
Actual Time 7:08 AM MST 5:18 PM MST
Civil Twilight 6:41 AM MST 5:46 PM MST
Nautical Twilight 6:09 AM MST 6:17 PM MST
Astronomical Twilight 5:39 AM MST 6:48 PM MST
Moon 11:39 AM MST (11/18) 10:39 PM MST (11/18)
Length of Visible Light 11h 05m
Length of Day
10h 10m
Waxing Crescent, 31% of the Moon is Illuminated
Nov 18
Waxing Crescent
Nov 20
First Quarter
Nov 28
Full
Dec 6
Last Quarter
Dec 13
New

Hourly Weather History & Observations

Time (MST) Temp. Windchill Dew Point Humidity Pressure Visibility Wind Dir Wind Speed Gust Speed Precip Events Conditions
12:54 AM 39.0 °F 36.8 °F 32.0 °F 76% 30.04 in 10.0 mi SSW 3.5 mph - N/A   Overcast
1:49 AM 39.2 °F 35.9 °F 35.6 °F 87% 30.17 in 10.0 mi SSW 4.6 mph - N/A   Overcast
1:54 AM 39.9 °F 37.8 °F 35.1 °F 83% 30.04 in 10.0 mi SW 3.5 mph - N/A   Overcast
2:35 AM 39.2 °F - 35.6 °F 87% 30.17 in 10.0 mi Calm Calm - N/A   Overcast
2:54 AM 41.0 °F - 35.1 °F 79% 30.02 in 10.0 mi Calm Calm - N/A   Overcast
3:54 AM 41.0 °F 39.0 °F 36.0 °F 82% 30.01 in 10.0 mi South 3.5 mph - N/A   Overcast
4:54 AM 39.9 °F 37.8 °F 36.0 °F 86% 30.04 in 10.0 mi SSE 3.5 mph - N/A   Overcast
5:54 AM 41.0 °F 39.0 °F 36.0 °F 82% 30.06 in 10.0 mi South 3.5 mph - N/A   Overcast
6:06 AM 41.0 °F 38.0 °F 35.6 °F 81% 30.17 in 10.0 mi South 4.6 mph - N/A   Overcast
6:54 AM 39.9 °F 36.7 °F 36.0 °F 86% 30.09 in 10.0 mi SSW 4.6 mph - N/A   Overcast
7:03 AM 39.2 °F 35.0 °F 35.6 °F 87% 30.18 in 10.0 mi South 5.8 mph - N/A   Overcast
7:54 AM 39.0 °F 36.8 °F 35.1 °F 86% 30.11 in 10.0 mi South 3.5 mph - N/A   Scattered Clouds
8:54 AM 44.1 °F 38.1 °F 35.1 °F 71% 30.12 in 10.0 mi SSW 11.5 mph 17.3 mph N/A   Partly Cloudy
9:54 AM 46.0 °F 40.6 °F 35.1 °F 66% 30.12 in 10.0 mi SSW 11.5 mph - N/A   Scattered Clouds
10:54 AM 48.9 °F - 34.0 °F 56% 30.13 in 10.0 mi SW 11.5 mph - N/A   Scattered Clouds
11:06 AM 50.0 °F - 35.6 °F 58% 30.22 in 10.0 mi SSW 12.7 mph 21.9 mph N/A   Mostly Cloudy
11:33 AM 51.8 °F - 35.6 °F 54% 30.21 in 10.0 mi SW 15.0 mph 20.7 mph N/A   Mostly Cloudy
11:46 AM 48.2 °F - 35.6 °F 62% 30.21 in 10.0 mi SW 13.8 mph 20.7 mph N/A   Mostly Cloudy
11:54 AM 51.1 °F - 35.1 °F 54% 30.14 in 10.0 mi SW 16.1 mph 20.7 mph N/A   Mostly Cloudy
12:54 PM 50.0 °F - 33.1 °F 52% 30.08 in 10.0 mi WSW 10.4 mph 17.3 mph N/A   Mostly Cloudy
1:54 PM 53.1 °F - 30.0 °F 41% 30.06 in 10.0 mi SW 10.4 mph 20.7 mph N/A   Scattered Clouds
2:54 PM 53.1 °F - 28.9 °F 40% 30.05 in 10.0 mi WSW 11.5 mph 21.9 mph N/A   Scattered Clouds
3:54 PM 54.0 °F - 30.0 °F 40% 30.06 in 10.0 mi SW 13.8 mph 20.7 mph N/A   Mostly Cloudy
4:54 PM 50.0 °F - 30.0 °F 46% 30.08 in 10.0 mi SSW 9.2 mph - N/A   Clear
5:54 PM 44.1 °F - 28.9 °F 55% 30.11 in 10.0 mi Calm Calm - N/A   Scattered Clouds
6:54 PM 37.0 °F - 25.0 °F 62% 30.16 in 10.0 mi Calm Calm - N/A   Partly Cloudy
7:54 PM 33.1 °F 30.0 °F 26.1 °F 75% 30.21 in 10.0 mi NE 3.5 mph - N/A   Clear
8:54 PM 28.0 °F - 21.9 °F 78% 30.22 in 10.0 mi Calm Calm - N/A   Clear
10:54 PM 25.0 °F 20.7 °F 19.9 °F 81% 30.23 in 10.0 mi ENE 3.5 mph - N/A   Clear
11:54 PM 21.9 °F - 18.0 °F 85% 30.24 in 10.0 mi Calm Calm - N/A   Clear